Date String (YYYY-MM-DD hh:mm:ss) UTC,Instrument flags,absolute air pressure of the measurement (hPa),sample flow rate (lpm),inlet stack bypass flow (lpm),air temperature of the measurement (°C),ambient temperature measured by the external sensor (°C),aerosol sample conditioner tube jacket temperature (°C),OPC LED temperature (°C),internal box temperature (°C),relative humidity of the measurement (%),span deviation,mass concentration of particles derived from Lorenz-Mie calculation of OPC scattering (μg/m³),mass concentration of particles derived from Lorenz-Mie calculation of OPC scattering (μg/m³),mass concentration of particles derived from Lorenz-Mie calculation of OPC scattering (μg/m³)
DateTimeUTC,F1_M11,P_M11,Q1_M11,Q2_M11,T1_M11,T2_M11,T3_M11,T4_M11,T5_M11,U1_M11,ZSPAN_M11,X2_M11,X0_M11,X1_M11
2023-09-21 13:00:00,SystemResetWarning,0829.0,4.99,000.00,028.5,026.9,000.0,037.0,030.0,15.8,0000.0,0001.91,0006.21,0001.49
2023-09-21 13:01:00,SystemResetWarning,0828.9,5.01,000.00,028.4,026.9,000.0,037.0,030.0,15.7,0000.0,0001.88,0006.10,0001.47
2023-09-21 13:02:00,SystemResetWarning,0828.9,5.01,000.00,028.4,026.9,000.0,037.0,030.1,15.9,0000.0,0001.83,0005.36,0001.46
2023-09-21 13:03:00,SystemResetWarning,0829.0,4.99,000.00,028.4,026.9,000.0,037.0,030.1,15.9,0000.0,0001.79,0005.96,0001.47
2023-09-21 13:04:00,SystemResetWarning,0829.0,4.99,000.00,028.5,026.9,000.0,037.0,030.0,15.7,0000.0,0001.78,0005.61,0001.48
2023-09-21 13:05:00,SystemResetWarning,0829.0,4.99,000.00,028.5,027.0,000.0,036.9,030.1,15.7,0000.0,0001.82,0006.60,0001.51
2023-09-21 13:06:00,SystemResetWarning,0829.0,5.01,000.00,028.5,027.0,000.0,036.9,030.1,15.8,0000.0,0001.82,0007.39,0001.54
2023-09-21 13:07:00,SystemResetWarning,0829.0,5.01,000.00,028.5,027.0,000.0,036.9,030.1,15.8,0000.0,0001.83,0007.50,0001.57
2023-09-21 13:08:00,SystemResetWarning,0829.0,4.99,000.00,028.5,027.0,000.0,036.9,030.1,15.8,0000.0,0001.97,0007.27,0001.61
2023-09-21 13:09:00,SystemResetWarning,0829.0,4.99,000.00,028.5,027.0,000.0,036.9,030.2,15.8,0000.0,0002.06,0007.41,0001.64
2023-09-21 13:10:00,SystemResetWarning,0829.0,5.00,000.00,028.5,027.1,000.0,036.9,030.2,15.8,0000.0,0002.12,0007.44,0001.68
2023-09-21 13:11:00,SystemResetWarning,0829.0,5.01,000.00,028.5,027.1,000.0,036.9,030.2,15.9,0000.0,0002.19,0007.66,0001.72
2023-09-21 13:12:00,SystemResetWarning,0829.0,5.00,000.00,028.6,027.1,000.0,036.9,030.2,16.0,0000.0,0002.26,0008.14,0001.74
2023-09-21 13:13:00,SystemResetWarning,0828.9,4.99,000.00,028.6,027.1,000.0,036.9,030.2,16.1,0000.0,0002.26,0008.20,0001.74
2023-09-21 13:14:00,SystemResetWarning,0829.0,5.00,000.00,028.6,027.1,000.0,036.9,030.2,16.2,0000.0,0002.31,0008.01,0001.74
2023-09-21 13:15:00,SystemResetWarning,0828.9,5.02,000.00,028.6,027.1,000.0,036.9,030.2,16.2,0000.0,0002.34,0007.72,0001.74
2023-09-21 13:16:00,SystemResetWarning,0828.9,4.99,000.00,028.6,027.1,000.0,037.0,030.2,16.2,0000.0,0002.38,0007.05,0001.72
2023-09-21 13:17:00,SystemResetWarning,0828.9,4.99,000.00,028.6,027.1,000.0,037.0,030.2,16.2,0000.0,0002.33,0005.94,0001.69
2023-09-21 13:18:00,SystemResetWarning,0828.9,5.00,000.00,028.6,027.1,000.0,037.0,030.2,16.2,0000.0,0002.30,0005.61,0001.65
2023-09-21 13:19:00,SystemResetWarning,0828.9,5.01,000.00,028.6,027.1,000.0,037.0,030.2,16.1,0000.0,0002.21,0005.38,0001.63
2023-09-21 13:20:00,SystemResetWarning,0829.0,5.00,000.00,028.6,027.1,000.0,037.0,030.2,16.1,0000.0,0002.12,0004.99,0001.62
2023-09-21 13:21:00,SystemResetWarning,0828.9,4.99,000.00,028.6,027.1,000.0,037.0,030.2,16.1,0000.0,0002.10,0004.88,0001.61
2023-09-21 13:22:00,SystemResetWarning,0828.9,4.99,000.00,028.6,027.1,000.0,037.0,030.2,16.1,0000.0,0002.08,0004.67,0001.58
2023-09-21 13:23:00,SystemResetWarning,0828.9,5.01,000.00,028.6,027.1,000.0,037.0,030.2,16.2,0000.0,0002.02,0003.78,0001.56
2023-09-21 13:24:00,SystemResetWarning,0828.9,5.01,000.00,028.6,027.1,000.0,037.0,030.2,16.3,0000.0,0002.05,0004.78,0001.56
2023-09-21 13:25:00,SystemResetWarning,0828.9,5.00,000.00,028.6,027.1,000.0,037.0,030.3,16.5,0000.0,0002.02,0004.21,0001.56
2023-09-21 13:26:00,SystemResetWarning,0828.9,4.99,000.00,028.6,027.1,000.0,037.0,030.2,16.4,0000.0,0002.01,0004.18,0001.56
2023-09-21 13:27:00,SystemResetWarning,0828.9,4.99,000.00,028.7,027.1,000.0,037.0,030.3,16.5,0000.0,0001.97,0004.10,0001.56
2023-09-21 13:28:00,SystemResetWarning,0829.0,5.00,000.00,028.7,027.1,000.0,037.0,030.3,16.4,0000.0,0001.95,0004.01,0001.57
2023-09-21 13:29:00,SystemResetWarning,0829.0,5.01,000.00,028.7,027.1,000.0,037.0,030.3,16.2,0000.0,0002.00,0004.53,0001.60
2023-09-21 13:30:00,SystemResetWarning,0829.0,5.02,000.00,028.7,027.1,000.0,037.0,030.3,15.9,0000.0,0001.99,0004.67,0001.62
2023-09-21 13:31:00,SystemResetWarning,0829.0,4.99,000.00,028.7,027.1,000.0,037.0,030.3,16.7,0000.0,0002.03,0004.72,0001.64
2023-09-21 13:32:00,SystemResetWarning,0829.0,4.99,000.00,028.7,027.1,000.0,037.0,030.3,16.9,0000.0,0002.06,0004.75,0001.66
2023-09-21 13:33:00,SystemResetWarning,0829.0,4.99,000.00,028.7,027.1,000.0,037.0,030.3,16.7,0000.0,0002.06,0004.71,0001.69
2023-09-21 13:34:00,SystemResetWarning,0829.0,5.00,000.00,028.7,027.1,000.0,037.0,030.3,16.3,0000.0,0002.10,0004.73,0001.71
2023-09-21 13:35:00,SystemResetWarning,0829.1,5.01,000.00,028.7,027.2,000.0,037.0,030.3,16.3,0000.0,0002.12,0003.53,0001.73
2023-09-21 13:36:00,SystemResetWarning,0829.1,5.01,000.00,028.7,027.2,000.0,037.0,030.3,16.4,0000.0,0002.15,0003.56,0001.73
2023-09-21 13:37:00,SystemResetWarning,0829.1,5.00,000.00,028.7,027.2,000.0,037.0,030.3,16.5,0000.0,0002.20,0003.79,0001.75
2023-09-21 13:38:00,SystemResetWarning,0829.1,5.00,000.00,028.7,027.2,000.0,037.0,030.3,16.5,0000.0,0002.20,0003.81,0001.77
2023-09-21 13:39:00,SystemResetWarning,0829.1,4.99,000.00,028.7,027.2,000.0,037.0,030.3,16.5,0000.0,0002.20,0003.82,0001.77
2023-09-21 13:40:00,SystemResetWarning,0829.1,4.99,000.00,028.7,027.2,000.0,037.0,030.4,17.0,0000.0,0002.19,0004.01,0001.76
2023-09-21 13:41:00,SystemResetWarning,0829.1,5.00,000.00,028.7,027.2,000.0,037.0,030.4,16.5,0000.0,0002.25,0004.86,0001.75
2023-09-21 13:42:00,SystemResetWarning,0829.1,5.02,000.00,028.7,027.2,000.0,037.0,030.4,16.3,0000.0,0002.25,0004.91,0001.74
2023-09-21 13:43:00,SystemResetWarning,0829.1,5.00,000.00,028.7,027.2,000.0,037.0,030.4,16.6,0000.0,0002.22,0004.89,0001.71
2023-09-21 13:44:00,SystemResetWarning,0829.1,5.00,000.00,028.7,027.2,000.0,037.0,030.4,16.8,0000.0,0002.19,0004.87,0001.68
2023-09-21 13:45:00,SystemResetWarning,0829.1,5.00,000.00,028.8,027.3,000.0,037.1,030.4,17.0,0000.0,0002.16,0004.85,0001.68
2023-09-21 13:46:00,SystemResetWarning,0829.1,5.00,000.00,028.8,027.3,000.0,037.1,030.4,17.5,0000.0,0002.14,0004.99,0001.67
2023-09-21 13:47:00,SystemResetWarning,0829.1,5.00,000.00,028.8,027.3,000.0,037.1,030.4,17.0,0000.0,0002.11,0004.88,0001.67
2023-09-21 13:48:00,SystemResetWarning,0829.1,4.99,000.00,028.8,027.3,000.0,037.1,030.5,16.7,0000.0,0002.11,0004.79,0001.66
2023-09-21 13:49:00,SystemResetWarning,0829.1,5.00,000.00,028.8,027.3,000.0,037.1,030.5,17.9,0000.0,0002.12,0004.77,0001.66
2023-09-21 13:50:00,SystemResetWarning,0829.1,5.01,000.00,028.8,027.3,000.0,037.1,030.5,17.7,0000.0,0002.15,0004.82,0001.68
2023-09-21 13:51:00,SystemResetWarning,0829.1,5.01,000.00,028.8,027.3,000.0,037.1,030.5,17.4,0000.0,0002.15,0004.13,0001.69
2023-09-21 13:52:00,SystemResetWarning,0829.1,5.00,000.00,028.8,027.4,000.0,037.1,030.5,18.2,0000.0,0002.08,0003.02,0001.69
2023-09-21 13:53:00,SystemResetWarning,0829.1,4.99,000.00,028.8,027.4,000.0,037.1,030.5,18.9,0000.0,0002.08,0003.34,0001.70
2023-09-21 13:54:00,SystemResetWarning,0829.1,4.99,000.00,028.8,027.4,000.0,037.1,030.5,18.5,0000.0,0002.12,0003.79,0001.71
2023-09-21 13:55:00,SystemResetWarning,0829.1,5.00,000.00,028.8,027.4,000.0,037.1,030.5,17.9,0000.0,0002.18,0004.00,0001.72
2023-09-21 13:56:00,SystemResetWarning,0829.1,5.01,000.00,028.9,027.4,000.0,037.1,030.5,17.5,0000.0,0002.26,0004.19,0001.72
2023-09-21 13:57:00,SystemResetWarning,0829.1,4.99,000.00,028.9,027.4,000.0,037.1,030.5,17.4,0000.0,0002.25,0004.00,0001.74
2023-09-21 13:58:00,SystemResetWarning,0829.1,4.99,000.00,028.9,027.4,000.0,037.2,030.5,17.7,0000.0,0002.28,0004.08,0001.75
2023-09-21 13:59:00,SystemResetWarning,0829.1,5.00,000.00,028.9,027.4,000.0,037.2,030.5,18.0,0000.0,0002.34,0004.21,0001.76
